This is the latest recevied weather packets stored in our database for station/object SV1TQE-1. If no packets are shown the sender has not sent any weather packets the latest 10 day(s).
| Time | Temp. | Humidity | Pressure | Rain* | Wind** | Luminosity | Snow |
|---|---|---|---|---|---|---|---|
| 1787790117 | 29.44° C | 59% | 1018.5 hPa | - | - | - | - |
| 1787789305 | 29.44° C | 59% | 1018.6 hPa | - | - | - | - |
| 1787788405 | 29.44° C | 58% | 1018.7 hPa | - | - | - | - |
| 1787787507 | 29.44° C | 61% | 1018.7 hPa | - | - | - | - |
| 1787786605 | 29.44° C | 70% | 1018.7 hPa | - | - | - | - |
| 1787785704 | 29.44° C | 93% | 1018.6 hPa | - | - | - | - |
| 1787783904 | 29.44° C | 99% | 1018.6 hPa | - | - | - | - |
| 1787783004 | 29.44° C | 87% | 1018.7 hPa | - | - | - | - |
| 1787782104 | 29.44° C | 80% | 1018.7 hPa | - | - | - | - |
| 1787781204 | 29.44° C | 98% | 1018.6 hPa | - | - | - | - |
| 1787780304 | 29.44° C | 100% | 1018.6 hPa | - | - | - | - |
| 1787779403 | 29.44° C | 98% | 1018.6 hPa | - | - | - | - |
| 1787778503 | 29.44° C | 96% | 1018.6 hPa | - | - | - | - |
| 1787777603 | 29.44° C | 92% | 1018.5 hPa | - | - | - | - |
| 1787776703 | 30° C | 87% | 1018.4 hPa | - | - | - | - |
| 1787775803 | 30° C | 90% | 1018.4 hPa | - | - | - | - |
| 1787774903 | 30° C | 89% | 1018.3 hPa | - | - | - | - |
| 1787774003 | 30° C | 80% | 1018.2 hPa | - | - | - | - |
| 1787773102 | 30° C | 82% | 1018.2 hPa | - | - | - | - |
| 1787772202 | 30° C | 83% | 1018.2 hPa | - | - | - | - |
| 1787771302 | 30° C | 83% | 1017.9 hPa | - | - | - | - |
| 1787770402 | 30° C | 84% | 1017.7 hPa | - | - | - | - |
| 1787769502 | 30.56° C | 84% | 1017.6 hPa | - | - | - | - |
| 1787768602 | 30.56° C | 82% | 1017.4 hPa | - | - | - | - |
| 1787767702 | 30.56° C | 81% | 1017.4 hPa | - | - | - | - |
* Rain since midnight (hover to see other rain measurements)
** Current wind speed in m/s (hover to see current wind gust speed)